413P/Larson (2021)

Japanese version
Home page
Updated on February 20, 2021

---------------------------------------------------------------------

* Profile

Designation 413P/2020 W4
Recovery Date November 25, 2020
Magnitude 20.5 mag
Recoverer E. Schwab (Egelsbach, Germany)

* Pictures

* Orbital Elements

Epoch 2021 July 5.0 TT = JDT 2459400.5
T 2021 July 20.20973 TT                                 Rudenko
q   2.1398609            (2000.0)            P               Q
n   0.13789881     Peri.  186.04133     -0.70884647     +0.68373703
a   3.7104709      Node    39.02510     -0.63508800     -0.51173875
e   0.4232913      Incl.   15.97761     -0.30692005     -0.52021834
P   7.15
From 425 observations 2014 Jan. 6-2021 Jan. 22, mean residual 0".8.

* Finding Charts

* Magnitudes Graph

        m1 = 11.0 + 5 log d + 15.0 log r

---------------------------------------------------------------------

The orbital elements are published on M.P.E.C. 2021-B143.
The charts are made with StellaNavigator Ver.10 (AstroArts).
The magnitudes graphs are made with Comet for Windows.

---------------------------------------------------------------------

Copyright(C) Seiichi Yoshida (comet@aerith.net). All rights reserved.